AirNav   Everest Fuels
 
 1376 users online  

7Q7 White River Municipal Airport
White River, South Dakota, USA

GOING TO WHITE RIVER?


FAA INFORMATION EFFECTIVE 25 FEBRUARY 2021

Location

FAA Identifier: 7Q7
Lat/Long: 43-33-41.9910N 100-44-30.5000W
43-33.699850N 100-44.508333W
43.5616642,-100.7418056
(estimated)
Elevation: 2151 ft. / 656 m (estimated)
Variation: 09E (1985)
From city: 1 mile S of WHITE RIVER, SD
Time zone: UTC -7 (UTC -6 during Daylight Saving Time)
Zip code: 57579

Airport Operations

Airport use: Open to the public
Control tower: no
ARTCC: MINNEAPOLIS CENTER
FSS: HURON FLIGHT SERVICE STATION
NOTAMs facility: HON (NOTAM-D service available)
Attendance: UNATNDD
Wind indicator: yes
Segmented circle: no

Airport Communications

CTAF/UNICOM: 122.8

Airport Services

Powerplant service: NONE
Bottled oxygen: NONE

Runway Information

Runway 12/30

Dimensions: 3000 x 150 ft. / 914 x 46 m
Surface: turf, in fair condition
Runway edge markings: RWY 12/30 MKR WITH WHITE BLACK TIPPED MARKER CONES.
RUNWAY 12  RUNWAY 30
Latitude: 43-33.824833N43-33.507333N
Longitude: 100-44.875000W100-44.354833W
Elevation: 2130.0 ft.2151.0 ft.
Traffic pattern: leftleft
Runway end identifier lights: nono
Obstructions: 25 ft. pole, 750 ft. from runway, 182 ft. left of centerline, 30:1 slope to clearnone

Airport Ownership and Management from official FAA records

Ownership: Publicly-owned
Owner: CITY OF WHITE RIVER
PO BOX 102
WHITE RIVER, SD 57579
Phone 605-259-3242
Manager: PAUL KNISPEL
PO BOX 102
WHITE RIVER, SD 57579
Phone 605-828-0503

Airport Operational Statistics

Aircraft operations: 118/year *
90% local general aviation
10% transient general aviation
* for 12-month period ending 07 May 2020

Additional Remarks

WILDLIFE ON & INVOF ARPT.
WATCH FOR HOLES MADE BY VARMINTS.
FOR CD CTC MINNEAPOLIS ARTCC AT 651-463-5588.
ARPT CLSD FOR NIGHT OPNS.

Instrument Procedures

There are no published instrument procedures at 7Q7.

Some nearby airports with instrument procedures:

KSUO - Rosebud Sioux Tribal Airport (19 nm S)
KICR - Winner Regional Airport (41 nm E)
KVTN - Miller Field Airport (43 nm S)
KPHP - Philip Airport (47 nm NW)
9V6 - Martin Municipal Airport (49 nm SW)
 
Loc | Ops | Rwys | IFR | FBO | Links
Com | Nav | Svcs | Stats | Notes

Bismarck Aero Center
AirBoss

 
Area around 7Q7 (White River Municipal Airport)
 
Road maps at: MapQuest Bing Google
 
Aerial photo
WARNING: Photo may not be current or correct
Aerial photo of 7Q7 (White River Municipal Airport)
Photo by Steve Hamilton
Photo taken 19-May-2007

Do you have a better or more recent aerial photo of White River Municipal Airport that you would like to share? If so, please send us your photo.

 
Sectional chart

 
Airport distance calculator
Flying to White River Municipal Airport? Find the distance to fly.

From to 7Q7

Sunrise and sunset
Times for 05-Mar-2021
 Local
(UTC-7)
 Zulu
(UTC)
Morning civil twilight05:4512:45
Sunrise06:1413:14
Sunset17:3500:35
Evening civil twilight18:0401:04

Current date and time
Zulu (UTC)  05-Mar-2021 21:07:33
Local (UTC-7)  05-Mar-2021 14:07:33
 
METAR
KICR 
41nm E 
052053Z AUTO 13004KT 10SM CLR 18/M01 A3020 RMK AO2 SLP229 T01831011 58017
KVTN 
43nm S 
052052Z AUTO 26007KT 10SM CLR 21/M04 A3018 RMK AO2 SLP227 T02111039 57021
KPHP 
47nm NW 
052055Z AUTO 09005KT 10SM CLR 15/04 A3019 RMK AO2 SLP231 T01500039 58021
TAF
NOTAMs
Click for the latest NOTAMs
NOTAMs are issued by the DoD/FAA and will open in a separate window not controlled by AirNav.

 

 
 

Would you like to see your business listed on this page?

 If your business provides an interesting product or service to pilots, flight crews, aircraft, or users of the White River Municipal Airport, you should consider listing it here.  To start the listing process, click on the button below
 
Add a business
 

Other Pages about White River Municipal Airport

Update a link
 
Copyright © AirNav, LLC. All rights reserved. Privacy Policy  Contact